Time,TemperatureF,DewpointF,PressureIn,WindDirection,WindDirectionDegrees,WindSpeedMPH,WindSpeedGustMPH,Humidity,HourlyPrecipIn,Conditions,Clouds,dailyrainin,SoftwareType,DateUTC
2013-09-27 00:03:00,65.3,55.4,29.73,NW,317,0.0,1.0,70,0.00,,,0.00,WUHU216DAVISVP2,2013-09-27 05:03:00,
2013-09-27 00:08:00,65.2,54.9,29.73,NW,311,0.0,1.0,69,0.00,,,0.00,WUHU216DAVISVP2,2013-09-27 05:08:00,
2013-09-27 00:13:00,65.1,54.8,29.73,NW,312,0.0,1.0,69,0.00,,,0.00,WUHU216DAVISVP2,2013-09-27 05:13:00,
2013-09-27 00:18:00,65.0,54.7,29.72,WNW,296,0.0,6.0,69,0.00,,,0.00,WUHU216DAVISVP2,2013-09-27 05:18:00,
2013-09-27 00:23:00,64.9,55.0,29.72,WNW,296,0.0,6.0,70,0.00,,,0.00,WUHU216DAVISVP2,2013-09-27 05:23:00,
2013-09-27 00:28:00,64.8,54.9,29.73,WNW,296,0.0,0.0,70,0.00,,,0.00,WUHU216DAVISVP2,2013-09-27 05:28:00,
2013-09-27 00:33:00,64.7,54.8,29.72,WNW,296,0.0,0.0,70,0.00,,,0.00,WUHU216DAVISVP2,2013-09-27 05:33:00,
2013-09-27 00:38:00,64.6,54.4,29.73,NE,34,0.0,5.0,69,0.00,,,0.00,WUHU216DAVISVP2,2013-09-27 05:38:00,
2013-09-27 00:43:00,64.5,54.3,29.73,North,11,0.0,5.0,69,0.00,,,0.00,WUHU216DAVISVP2,2013-09-27 05:43:00,
2013-09-27 00:48:00,64.4,54.2,29.73,NNW,341,0.0,4.0,69,0.00,,,0.00,WUHU216DAVISVP2,2013-09-27 05:48:00,
2013-09-27 00:53:00,64.3,54.5,29.73,NNW,341,0.0,0.0,70,0.00,,,0.00,WUHU216DAVISVP2,2013-09-27 05:53:00,
2013-09-27 00:58:00,64.1,54.3,29.73,NNW,341,0.0,0.0,70,0.00,,,0.00,WUHU216DAVISVP2,2013-09-27 05:58:00,
2013-09-27 01:03:00,64.0,54.2,29.73,NNW,341,0.0,0.0,70,0.00,,,0.00,WUHU216DAVISVP2,2013-09-27 06:03:00,
2013-09-27 01:08:00,63.9,53.7,29.73,NNE,24,0.0,7.0,69,0.00,,,0.00,WUHU216DAVISVP2,2013-09-27 06:08:00,
2013-09-27 01:13:00,63.8,53.6,29.73,NNE,22,0.0,7.0,69,0.00,,,0.00,WUHU216DAVISVP2,2013-09-27 06:13:00,
2013-09-27 01:18:00,63.8,53.6,29.73,NNE,26,3.0,4.0,69,0.00,,,0.00,WUHU216DAVISVP2,2013-09-27 06:18:00,
2013-09-27 01:23:00,63.7,53.9,29.73,NNE,14,0.0,6.0,70,0.00,,,0.00,WUHU216DAVISVP2,2013-09-27 06:23:00,
2013-09-27 01:28:00,63.5,53.7,29.73,NNE,14,0.0,6.0,70,0.00,,,0.00,WUHU216DAVISVP2,2013-09-27 06:28:00,
2013-09-27 01:33:00,63.4,53.6,29.73,NNE,20,0.0,2.0,70,0.00,,,0.00,WUHU216DAVISVP2,2013-09-27 06:33:00,
2013-09-27 01:38:00,63.2,53.4,29.73,NNE,22,0.0,2.0,70,0.00,,,0.00,WUHU216DAVISVP2,2013-09-27 06:38:00,
2013-09-27 01:43:00,63.0,53.6,29.74,NNE,22,0.0,1.0,71,0.00,,,0.00,WUHU216DAVISVP2,2013-09-27 06:43:00,
2013-09-27 01:48:00,62.8,53.4,29.74,North,10,1.0,5.0,71,0.00,,,0.00,WUHU216DAVISVP2,2013-09-27 06:48:00,
2013-09-27 01:53:00,62.6,53.2,29.74,NNE,25,0.0,6.0,71,0.00,,,0.00,WUHU216DAVISVP2,2013-09-27 06:53:00,
2013-09-27 01:58:00,62.4,53.0,29.75,NNE,20,3.0,7.0,71,0.00,,,0.00,WUHU216DAVISVP2,2013-09-27 06:58:00,
2013-09-27 02:03:00,62.3,52.9,29.75,NNE,21,0.0,7.0,71,0.00,,,0.00,WUHU216DAVISVP2,2013-09-27 07:03:00,
2013-09-27 02:08:00,62.2,52.8,29.75,NNE,21,0.0,4.0,71,0.00,,,0.00,WUHU216DAVISVP2,2013-09-27 07:08:00,
2013-09-27 02:13:00,62.1,52.7,29.75,NNE,29,0.0,4.0,71,0.00,,,0.00,WUHU216DAVISVP2,2013-09-27 07:13:00,
2013-09-27 02:18:00,62.0,52.6,29.74,NNE,25,1.0,3.0,71,0.00,,,0.00,WUHU216DAVISVP2,2013-09-27 07:18:00,
2013-09-27 02:23:00,61.8,52.4,29.75,NNE,25,0.0,3.0,71,0.00,,,0.00,WUHU216DAVISVP2,2013-09-27 07:23:00,
2013-09-27 02:28:00,61.7,52.3,29.75,NNE,19,0.0,5.0,71,0.00,,,0.00,WUHU216DAVISVP2,2013-09-27 07:28:00,
2013-09-27 02:33:00,61.7,52.0,29.75,NE,39,0.0,5.0,70,0.00,,,0.00,WUHU216DAVISVP2,2013-09-27 07:33:00,
2013-09-27 02:38:00,61.6,51.9,29.75,NNE,31,0.0,3.0,70,0.00,,,0.00,WUHU216DAVISVP2,2013-09-27 07:38:00,
2013-09-27 02:43:00,61.5,51.8,29.75,NNE,33,0.0,4.0,70,0.00,,,0.00,WUHU216DAVISVP2,2013-09-27 07:43:00,
2013-09-27 02:48:00,61.3,51.6,29.75,NNE,33,0.0,4.0,70,0.00,,,0.00,WUHU216DAVISVP2,2013-09-27 07:48:00,
2013-09-27 02:49:00,61.3,51.6,29.75,NNE,28,0.0,4.0,70,0.00,,,0.00,WUHU216DAVISVP2,2013-09-27 07:49:00,
2013-09-27 02:54:00,61.2,51.5,29.75,NNE,24,0.0,3.0,70,0.00,,,0.00,WUHU216DAVISVP2,2013-09-27 07:54:00,
2013-09-27 02:59:00,61.1,51.4,29.75,North,360,0.0,4.0,70,0.00,,,0.00,WUHU216DAVISVP2,2013-09-27 07:59:00,
2013-09-27 03:04:00,60.9,51.2,29.74,NE,38,0.0,5.0,70,0.00,,,0.00,WUHU216DAVISVP2,2013-09-27 08:04:00,
2013-09-27 03:09:00,60.9,51.2,29.74,NNE,21,0.0,5.0,70,0.00,,,0.00,WUHU216DAVISVP2,2013-09-27 08:09:00,
2013-09-27 03:14:00,60.8,50.7,29.75,NNE,14,0.0,5.0,69,0.00,,,0.00,WUHU216DAVISVP2,2013-09-27 08:14:00,
2013-09-27 03:19:00,60.6,50.5,29.74,NE,50,0.0,7.0,69,0.00,,,0.00,WUHU216DAVISVP2,2013-09-27 08:19:00,
2013-09-27 03:24:00,60.5,50.4,29.74,NNE,13,0.0,7.0,69,0.00,,,0.00,WUHU216DAVISVP2,2013-09-27 08:24:00,
2013-09-27 03:29:00,60.3,50.2,29.74,NNE,30,0.0,7.0,69,0.00,,,0.00,WUHU216DAVISVP2,2013-09-27 08:29:00,
2013-09-27 03:34:00,60.1,50.0,29.74,NNE,19,0.0,6.0,69,0.00,,,0.00,WUHU216DAVISVP2,2013-09-27 08:34:00,
2013-09-27 03:39:00,59.9,49.8,29.73,NNE,17,0.0,13.0,69,0.00,,,0.00,WUHU216DAVISVP2,2013-09-27 08:39:00,
2013-09-27 03:44:00,59.6,49.9,29.73,NNE,19,2.0,13.0,70,0.00,,,0.00,WUHU216DAVISVP2,2013-09-27 08:44:00,
2013-09-27 03:49:00,59.4,49.7,29.73,NNE,19,3.0,10.0,70,0.00,,,0.00,WUHU216DAVISVP2,2013-09-27 08:49:00,
2013-09-27 03:54:00,59.2,49.6,29.73,NNE,26,3.0,10.0,70,0.00,,,0.00,WUHU216DAVISVP2,2013-09-27 08:54:00,
2013-09-27 03:59:00,59.0,49.4,29.73,NNE,22,1.0,7.0,70,0.00,,,0.00,WUHU216DAVISVP2,2013-09-27 08:59:00,
2013-09-27 04:04:00,59.0,49.4,29.73,NNE,28,0.0,6.0,70,0.00,,,0.00,WUHU216DAVISVP2,2013-09-27 09:04:00,
2013-09-27 04:09:00,59.0,49.4,29.73,NNE,28,0.0,5.0,70,0.00,,,0.00,WUHU216DAVISVP2,2013-09-27 09:09:00,
2013-09-27 04:14:00,58.9,49.3,29.73,NNE,24,0.0,5.0,70,0.00,,,0.00,WUHU216DAVISVP2,2013-09-27 09:14:00,
2013-09-27 04:19:00,58.7,49.1,29.73,NNE,23,0.0,5.0,70,0.00,,,0.00,WUHU216DAVISVP2,2013-09-27 09:19:00,
2013-09-27 04:24:00,58.5,48.9,29.73,NNE,28,0.0,4.0,70,0.00,,,0.00,WUHU216DAVISVP2,2013-09-27 09:24:00,
2013-09-27 04:29:00,58.2,48.6,29.72,NNE,24,0.0,4.0,70,0.00,,,0.00,WUHU216DAVISVP2,2013-09-27 09:29:00,
2013-09-27 04:34:00,58.1,48.9,29.72,NNE,25,0.0,4.0,71,0.00,,,0.00,WUHU216DAVISVP2,2013-09-27 09:34:00,
2013-09-27 04:39:00,58.1,48.5,29.72,NNE,14,0.0,8.0,70,0.00,,,0.00,WUHU216DAVISVP2,2013-09-27 09:39:00,
2013-09-27 04:44:00,58.2,48.6,29.72,NNE,15,0.0,11.0,70,0.00,,,0.00,WUHU216DAVISVP2,2013-09-27 09:44:00,
2013-09-27 04:49:00,58.1,48.5,29.73,NNE,23,6.0,11.0,70,0.00,,,0.00,WUHU216DAVISVP2,2013-09-27 09:49:00,
2013-09-27 04:54:00,58.0,48.4,29.73,NNE,24,0.0,10.0,70,0.00,,,0.00,WUHU216DAVISVP2,2013-09-27 09:54:00,
2013-09-27 04:59:00,57.9,48.3,29.73,NNE,24,0.0,7.0,70,0.00,,,0.00,WUHU216DAVISVP2,2013-09-27 09:59:00,
2013-09-27 05:04:00,57.9,48.3,29.74,NNE,25,0.0,7.0,70,0.00,,,0.00,WUHU216DAVISVP2,2013-09-27 10:04:00,
2013-09-27 05:09:00,57.9,48.3,29.75,NNE,24,0.0,4.0,70,0.00,,,0.00,WUHU216DAVISVP2,2013-09-27 10:09:00,
2013-09-27 05:14:00,57.8,48.2,29.74,NNE,25,3.0,5.0,70,0.00,,,0.00,WUHU216DAVISVP2,2013-09-27 10:14:00,
2013-09-27 05:19:00,57.7,48.1,29.73,NNE,25,0.0,5.0,70,0.00,,,0.00,WUHU216DAVISVP2,2013-09-27 10:19:00,
2013-09-27 05:24:00,57.6,48.0,29.72,NNE,28,0.0,5.0,70,0.00,,,0.00,WUHU216DAVISVP2,2013-09-27 10:24:00,
2013-09-27 05:29:00,57.6,48.0,29.72,North,5,1.0,6.0,70,0.00,,,0.00,WUHU216DAVISVP2,2013-09-27 10:29:00,
2013-09-27 05:34:00,57.5,47.9,29.71,NE,34,0.0,6.0,70,0.00,,,0.00,WUHU216DAVISVP2,2013-09-27 10:34:00,
2013-09-27 05:39:00,57.4,47.8,29.71,NNE,23,4.0,5.0,70,0.00,,,0.00,WUHU216DAVISVP2,2013-09-27 10:39:00,
2013-09-27 05:44:00,57.3,47.7,29.70,NNE,13,0.0,6.0,70,0.00,,,0.00,WUHU216DAVISVP2,2013-09-27 10:44:00,
2013-09-27 05:49:00,57.3,47.7,29.70,NNE,28,0.0,6.0,70,0.00,,,0.00,WUHU216DAVISVP2,2013-09-27 10:49:00,
2013-09-27 05:54:00,57.2,47.6,29.71,NNE,13,0.0,3.0,70,0.00,,,0.00,WUHU216DAVISVP2,2013-09-27 10:54:00,
2013-09-27 05:59:00,57.1,47.2,29.72,NNE,13,0.0,2.0,69,0.00,,,0.00,WUHU216DAVISVP2,2013-09-27 10:59:00,
2013-09-27 06:04:00,57.1,47.5,29.73,NNE,13,0.0,2.0,70,0.00,,,0.00,WUHU216DAVISVP2,2013-09-27 11:04:00,
2013-09-27 06:09:00,56.9,47.0,29.71,North,360,0.0,6.0,69,0.00,,,0.00,WUHU216DAVISVP2,2013-09-27 11:09:00,
2013-09-27 06:14:00,56.9,47.0,29.72,NNE,21,0.0,6.0,69,0.00,,,0.00,WUHU216DAVISVP2,2013-09-27 11:14:00,
2013-09-27 06:19:00,56.8,46.9,29.72,North,10,0.0,7.0,69,0.00,,,0.00,WUHU216DAVISVP2,2013-09-27 11:19:00,
2013-09-27 06:24:00,56.7,46.8,29.72,NNE,32,0.0,7.0,69,0.00,,,0.00,WUHU216DAVISVP2,2013-09-27 11:24:00,
2013-09-27 06:29:00,56.6,47.1,29.73,NNE,25,0.0,4.0,70,0.00,,,0.00,WUHU216DAVISVP2,2013-09-27 11:29:00,
2013-09-27 06:34:00,56.5,47.0,29.73,NNE,25,0.0,0.0,70,0.00,,,0.00,WUHU216DAVISVP2,2013-09-27 11:34:00,
2013-09-27 06:39:00,56.5,47.0,29.73,NNE,23,0.0,4.0,70,0.00,,,0.00,WUHU216DAVISVP2,2013-09-27 11:39:00,
2013-09-27 06:44:00,56.5,46.6,29.73,East,80,0.0,4.0,69,0.00,,,0.00,WUHU216DAVISVP2,2013-09-27 11:44:00,
2013-09-27 06:49:00,56.5,46.6,29.72,NNE,18,6.0,10.0,69,0.00,,,0.00,WUHU216DAVISVP2,2013-09-27 11:49:00,
2013-09-27 06:54:00,56.5,46.6,29.72,NNE,23,1.0,12.0,69,0.00,,,0.00,WUHU216DAVISVP2,2013-09-27 11:54:00,
2013-09-27 06:59:00,56.6,46.7,29.72,NNE,23,0.0,12.0,69,0.00,,,0.00,WUHU216DAVISVP2,2013-09-27 11:59:00,
2013-09-27 07:04:00,56.6,46.7,29.72,NNE,13,0.0,6.0,69,0.00,,,0.00,WUHU216DAVISVP2,2013-09-27 12:04:00,
2013-09-27 07:09:00,56.6,46.7,29.72,NNE,17,0.0,9.0,69,0.00,,,0.00,WUHU216DAVISVP2,2013-09-27 12:09:00,
2013-09-27 07:14:00,56.7,46.8,29.73,NNE,27,0.0,9.0,69,0.00,,,0.00,WUHU216DAVISVP2,2013-09-27 12:14:00,
2013-09-27 07:19:00,56.7,46.8,29.72,NNE,23,0.0,5.0,69,0.00,,,0.00,WUHU216DAVISVP2,2013-09-27 12:19:00,
2013-09-27 07:24:00,56.7,46.8,29.72,NNE,25,0.0,5.0,69,0.00,,,0.00,WUHU216DAVISVP2,2013-09-27 12:24:00,
2013-09-27 07:29:00,56.7,46.8,29.72,NNE,17,0.0,1.0,69,0.00,,,0.00,WUHU216DAVISVP2,2013-09-27 12:29:00,
2013-09-27 07:34:00,56.7,46.8,29.72,NNE,17,0.0,0.0,69,0.00,,,0.00,WUHU216DAVISVP2,2013-09-27 12:34:00,
2013-09-27 07:39:00,56.7,46.8,29.72,NNE,17,0.0,0.0,69,0.00,,,0.00,WUHU216DAVISVP2,2013-09-27 12:39:00,
2013-09-27 07:44:00,56.6,46.7,29.71,NNE,18,0.0,3.0,69,0.00,,,0.00,WUHU216DAVISVP2,2013-09-27 12:44:00,
2013-09-27 07:49:00,56.6,46.7,29.72,NNE,18,0.0,5.0,69,0.00,,,0.00,WUHU216DAVISVP2,2013-09-27 12:49:00,
2013-09-27 07:54:00,56.4,46.5,29.71,NNE,25,0.0,9.0,69,0.00,,,0.00,WUHU216DAVISVP2,2013-09-27 12:54:00,
2013-09-27 07:59:00,56.4,46.5,29.71,NNE,30,0.0,9.0,69,0.00,,,0.00,WUHU216DAVISVP2,2013-09-27 12:59:00,
2013-09-27 08:04:00,56.3,46.4,29.71,North,5,0.0,5.0,69,0.00,,,0.00,WUHU216DAVISVP2,2013-09-27 13:04:00,
2013-09-27 08:09:00,56.3,46.4,29.71,North,360,0.0,7.0,69,0.00,,,0.00,WUHU216DAVISVP2,2013-09-27 13:09:00,
2013-09-27 08:14:00,56.4,46.5,29.71,NW,304,0.0,7.0,69,0.00,,,0.00,WUHU216DAVISVP2,2013-09-27 13:14:00,
2013-09-27 08:19:00,56.3,46.8,29.71,NW,314,0.0,7.0,70,0.00,,,0.00,WUHU216DAVISVP2,2013-09-27 13:19:00,
2013-09-27 08:24:00,56.0,46.8,29.71,NW,314,0.0,7.0,71,0.00,,,0.00,WUHU216DAVISVP2,2013-09-27 13:24:00,
2013-09-27 08:29:00,55.7,46.6,29.71,NNE,12,0.0,4.0,71,0.00,,,0.00,WUHU216DAVISVP2,2013-09-27 13:29:00,
2013-09-27 08:34:00,55.5,46.7,29.71,NNE,24,0.0,6.0,72,0.00,,,0.00,WUHU216DAVISVP2,2013-09-27 13:34:00,
2013-09-27 08:39:00,55.4,46.6,29.72,NNE,30,0.0,10.0,72,0.00,,,0.00,WUHU216DAVISVP2,2013-09-27 13:39:00,
2013-09-27 08:44:00,55.4,46.6,29.72,North,9,0.0,10.0,72,0.00,,,0.00,WUHU216DAVISVP2,2013-09-27 13:44:00,
2013-09-27 08:49:00,55.3,46.5,29.71,North,9,3.0,11.0,72,0.00,,,0.00,WUHU216DAVISVP2,2013-09-27 13:49:00,
2013-09-27 08:54:00,55.3,46.9,29.71,NE,41,0.0,11.0,73,0.00,,,0.00,WUHU216DAVISVP2,2013-09-27 13:54:00,
2013-09-27 08:59:00,55.4,47.0,29.72,NNE,29,1.0,7.0,73,0.00,,,0.00,WUHU216DAVISVP2,2013-09-27 13:59:00,
2013-09-27 09:04:00,55.4,47.0,29.72,NNE,14,0.0,10.0,73,0.00,,,0.00,WUHU216DAVISVP2,2013-09-27 14:04:00,
2013-09-27 09:09:00,55.5,47.1,29.72,NNE,28,0.0,10.0,73,0.00,,,0.00,WUHU216DAVISVP2,2013-09-27 14:09:00,
2013-09-27 09:14:00,55.5,47.1,29.72,NE,40,4.0,9.0,73,0.00,,,0.00,WUHU216DAVISVP2,2013-09-27 14:14:00,
2013-09-27 09:19:00,55.5,47.1,29.72,NNE,31,0.0,10.0,73,0.00,,,0.00,WUHU216DAVISVP2,2013-09-27 14:19:00,
2013-09-27 09:24:00,55.6,47.2,29.72,NNE,20,0.0,10.0,73,0.00,,,0.00,WUHU216DAVISVP2,2013-09-27 14:24:00,
2013-09-27 09:29:00,55.8,47.4,29.71,NNE,15,6.0,9.0,73,0.00,,,0.00,WUHU216DAVISVP2,2013-09-27 14:29:00,
2013-09-27 09:34:00,55.8,47.4,29.72,North,11,0.0,11.0,73,0.00,,,0.00,WUHU216DAVISVP2,2013-09-27 14:34:00,
2013-09-27 09:39:00,55.9,47.5,29.72,NNE,28,5.0,13.0,73,0.00,,,0.00,WUHU216DAVISVP2,2013-09-27 14:39:00,
2013-09-27 09:44:00,56.0,47.6,29.72,NNE,15,0.0,13.0,73,0.00,,,0.00,WUHU216DAVISVP2,2013-09-27 14:44:00,
2013-09-27 09:49:00,56.0,47.6,29.72,NNE,28,0.0,8.0,73,0.00,,,0.00,WUHU216DAVISVP2,2013-09-27 14:49:00,
2013-09-27 09:54:00,56.0,47.6,29.72,NNE,26,0.0,6.0,73,0.00,,,0.00,WUHU216DAVISVP2,2013-09-27 14:54:00,
2013-09-27 09:59:00,56.1,47.7,29.72,NNE,32,0.0,6.0,73,0.00,,,0.00,WUHU216DAVISVP2,2013-09-27 14:59:00,
2013-09-27 10:04:00,56.1,47.7,29.72,North,10,0.0,10.0,73,0.00,,,0.00,WUHU216DAVISVP2,2013-09-27 15:04:00,
2013-09-27 10:09:00,56.0,47.6,29.72,NE,37,0.0,10.0,73,0.00,,,0.00,WUHU216DAVISVP2,2013-09-27 15:09:00,
2013-09-27 10:14:00,56.0,47.6,29.72,NNE,19,5.0,8.0,73,0.00,,,0.00,WUHU216DAVISVP2,2013-09-27 15:14:00,
2013-09-27 10:19:00,56.0,47.6,29.72,NNE,22,0.0,9.0,73,0.00,,,0.00,WUHU216DAVISVP2,2013-09-27 15:19:00,
2013-09-27 10:24:00,56.0,47.6,29.72,NNE,16,0.0,9.0,73,0.00,,,0.00,WUHU216DAVISVP2,2013-09-27 15:24:00,
2013-09-27 10:29:00,56.1,47.7,29.72,NNE,21,0.0,4.0,73,0.00,,,0.00,WUHU216DAVISVP2,2013-09-27 15:29:00,
2013-09-27 10:34:00,56.1,47.7,29.71,NNE,26,0.0,4.0,73,0.00,,,0.00,WUHU216DAVISVP2,2013-09-27 15:34:00,
2013-09-27 10:39:00,56.1,47.7,29.71,NNE,18,0.0,5.0,73,0.00,,,0.00,WUHU216DAVISVP2,2013-09-27 15:39:00,
2013-09-27 10:44:00,56.1,48.0,29.72,NNE,17,0.0,5.0,74,0.00,,,0.00,WUHU216DAVISVP2,2013-09-27 15:44:00,
2013-09-27 10:49:00,56.0,47.9,29.71,NNE,21,1.0,5.0,74,0.00,,,0.00,WUHU216DAVISVP2,2013-09-27 15:49:00,
2013-09-27 10:54:00,56.0,47.9,29.71,NNE,21,0.0,5.0,74,0.00,,,0.00,WUHU216DAVISVP2,2013-09-27 15:54:00,
2013-09-27 10:59:00,56.0,47.9,29.71,NNE,20,0.0,6.0,74,0.00,,,0.00,WUHU216DAVISVP2,2013-09-27 15:59:00,
2013-09-27 11:04:00,56.0,48.3,29.71,NNE,22,0.0,6.0,75,0.00,,,0.00,WUHU216DAVISVP2,2013-09-27 16:04:00,
2013-09-27 11:09:00,55.9,47.8,29.71,NNE,29,7.0,7.0,74,0.00,,,0.00,WUHU216DAVISVP2,2013-09-27 16:09:00,
2013-09-27 11:14:00,55.8,48.1,29.70,NNE,22,0.0,7.0,75,0.00,,,0.00,WUHU216DAVISVP2,2013-09-27 16:14:00,
2013-09-27 11:19:00,55.9,48.2,29.70,NE,43,5.0,7.0,75,0.00,,,0.00,WUHU216DAVISVP2,2013-09-27 16:19:00,
2013-09-27 11:24:00,56.1,48.4,29.69,North,5,4.0,7.0,75,0.00,,,0.00,WUHU216DAVISVP2,2013-09-27 16:24:00,
2013-09-27 11:29:00,56.2,48.1,29.69,NNE,17,0.0,7.0,74,0.00,,,0.00,WUHU216DAVISVP2,2013-09-27 16:29:00,
2013-09-27 11:34:00,56.2,48.1,29.70,NNE,28,0.0,6.0,74,0.00,,,0.00,WUHU216DAVISVP2,2013-09-27 16:34:00,
2013-09-27 11:39:00,56.0,47.9,29.70,NNE,22,0.0,6.0,74,0.00,,,0.00,WUHU216DAVISVP2,2013-09-27 16:39:00,
2013-09-27 11:44:00,55.8,48.1,29.70,NNE,18,5.0,9.0,75,0.00,,,0.00,WUHU216DAVISVP2,2013-09-27 16:44:00,
2013-09-27 11:49:00,55.8,48.1,29.70,North,5,0.0,9.0,75,0.00,,,0.00,WUHU216DAVISVP2,2013-09-27 16:49:00,
2013-09-27 11:54:00,55.7,48.0,29.70,NNE,24,3.0,7.0,75,0.00,,,0.00,WUHU216DAVISVP2,2013-09-27 16:54:00,
2013-09-27 11:59:00,55.7,48.0,29.70,NNE,25,0.0,7.0,75,0.00,,,0.00,WUHU216DAVISVP2,2013-09-27 16:59:00,
2013-09-27 12:04:00,55.7,48.0,29.69,NNE,13,0.0,6.0,75,0.00,,,0.00,WUHU216DAVISVP2,2013-09-27 17:04:00,
2013-09-27 12:09:00,55.7,48.0,29.70,NE,34,3.0,7.0,75,0.00,,,0.00,WUHU216DAVISVP2,2013-09-27 17:09:00,
2013-09-27 12:14:00,55.8,48.1,29.69,NNE,23,0.0,7.0,75,0.00,,,0.00,WUHU216DAVISVP2,2013-09-27 17:14:00,
2013-09-27 12:19:00,55.9,48.2,29.69,NNE,23,0.0,4.0,75,0.00,,,0.00,WUHU216DAVISVP2,2013-09-27 17:19:00,
2013-09-27 12:24:00,56.0,48.3,29.69,WNW,302,0.0,3.0,75,0.00,,,0.00,WUHU216DAVISVP2,2013-09-27 17:24:00,
2013-09-27 12:26:00,56.1,48.4,29.69,WNW,303,0.0,3.0,75,0.00,,,0.00,WUHU216DAVISVP2,2013-09-27 17:26:00,
2013-09-27 12:31:00,56.1,48.0,29.68,NNW,347,0.0,3.0,74,0.00,,,0.00,WUHU216DAVISVP2,2013-09-27 17:31:00,
2013-09-27 12:36:00,56.3,48.2,29.69,WNW,298,0.0,1.0,74,0.00,,,0.00,WUHU216DAVISVP2,2013-09-27 17:36:00,
2013-09-27 12:41:00,56.2,48.1,29.68,WNW,303,0.0,3.0,74,0.00,,,0.00,WUHU216DAVISVP2,2013-09-27 17:41:00,
2013-09-27 12:46:00,56.2,48.1,29.69,WNW,303,0.0,3.0,74,0.00,,,0.00,WUHU216DAVISVP2,2013-09-27 17:46:00,
2013-09-27 12:51:00,56.0,47.9,29.69,NNE,23,0.0,5.0,74,0.00,,,0.00,WUHU216DAVISVP2,2013-09-27 17:51:00,
2013-09-27 12:56:00,56.0,48.3,29.70,NNE,12,0.0,5.0,75,0.00,,,0.00,WUHU216DAVISVP2,2013-09-27 17:56:00,
2013-09-27 13:01:00,55.9,48.2,29.70,North,11,0.0,0.0,75,0.00,,,0.00,WUHU216DAVISVP2,2013-09-27 18:01:00,
2013-09-27 13:06:00,55.9,48.2,29.70,North,355,0.0,0.0,75,0.00,,,0.00,WUHU216DAVISVP2,2013-09-27 18:06:00,
2013-09-27 13:11:00,55.8,48.1,29.70,North,355,0.0,0.0,75,0.00,,,0.00,WUHU216DAVISVP2,2013-09-27 18:11:00,
2013-09-27 13:16:00,55.5,47.8,29.70,North,360,0.0,0.0,75,0.00,,,0.00,WUHU216DAVISVP2,2013-09-27 18:16:00,
2013-09-27 13:21:00,55.3,47.9,29.69,North,5,0.0,0.0,76,0.00,,,0.00,WUHU216DAVISVP2,2013-09-27 18:21:00,
2013-09-27 13:26:00,55.4,48.0,29.68,North,5,0.0,0.0,76,0.00,,,0.00,WUHU216DAVISVP2,2013-09-27 18:26:00,
2013-09-27 13:31:00,55.4,48.0,29.69,NNW,333,0.0,2.0,76,0.00,,,0.00,WUHU216DAVISVP2,2013-09-27 18:31:00,
2013-09-27 13:36:00,55.4,48.0,29.68,NNW,333,0.0,2.0,76,0.00,,,0.00,WUHU216DAVISVP2,2013-09-27 18:36:00,
2013-09-27 13:41:00,55.0,47.7,29.68,North,5,0.0,6.0,76,0.00,,,0.00,WUHU216DAVISVP2,2013-09-27 18:41:00,
2013-09-27 13:46:00,54.9,47.6,29.68,NW,314,0.0,6.0,76,0.00,,,0.00,WUHU216DAVISVP2,2013-09-27 18:46:00,
2013-09-27 13:51:00,54.9,47.6,29.68,NW,310,0.0,4.0,76,0.00,,,0.00,WUHU216DAVISVP2,2013-09-27 18:51:00,
2013-09-27 13:56:00,55.0,47.7,29.68,NW,309,0.0,0.0,76,0.00,,,0.00,WUHU216DAVISVP2,2013-09-27 18:56:00,
2013-09-27 14:01:00,55.1,47.8,29.67,WNW,301,0.0,1.0,76,0.00,,,0.00,WUHU216DAVISVP2,2013-09-27 19:01:00,
2013-09-27 14:06:00,55.1,47.8,29.68,WNW,292,0.0,10.0,76,0.00,,,0.00,WUHU216DAVISVP2,2013-09-27 19:06:00,
2013-09-27 14:11:00,54.9,47.2,29.68,NNW,333,0.0,10.0,75,0.00,,,0.00,WUHU216DAVISVP2,2013-09-27 19:11:00,
2013-09-27 14:16:00,54.7,47.4,29.67,West,277,0.0,5.0,76,0.00,,,0.00,WUHU216DAVISVP2,2013-09-27 19:16:00,
2013-09-27 14:21:00,54.5,47.5,29.67,NNW,329,0.0,5.0,77,0.00,,,0.00,WUHU216DAVISVP2,2013-09-27 19:21:00,
2013-09-27 14:26:00,54.7,47.7,29.67,WNW,292,0.0,3.0,77,0.00,,,0.00,WUHU216DAVISVP2,2013-09-27 19:26:00,
2013-09-27 14:31:00,54.9,47.6,29.67,WNW,286,0.0,5.0,76,0.00,,,0.00,WUHU216DAVISVP2,2013-09-27 19:31:00,
2013-09-27 14:36:00,54.7,47.4,29.68,WNW,283,0.0,6.0,76,0.00,,,0.00,WUHU216DAVISVP2,2013-09-27 19:36:00,
2013-09-27 14:41:00,54.6,47.6,29.68,West,279,0.0,6.0,77,0.00,,,0.00,WUHU216DAVISVP2,2013-09-27 19:41:00,
2013-09-27 14:46:00,54.4,47.4,29.68,WNW,283,0.0,1.0,77,0.00,,,0.00,WUHU216DAVISVP2,2013-09-27 19:46:00,
2013-09-27 14:51:00,54.2,47.2,29.68,WNW,288,0.0,6.0,77,0.00,,,0.00,WUHU216DAVISVP2,2013-09-27 19:51:00,
2013-09-27 14:56:00,54.0,47.4,29.69,WNW,287,0.0,6.0,78,0.00,,,0.00,WUHU216DAVISVP2,2013-09-27 19:56:00,
2013-09-27 15:01:00,54.0,47.4,29.68,WNW,288,0.0,2.0,78,0.00,,,0.00,WUHU216DAVISVP2,2013-09-27 20:01:00,
2013-09-27 15:06:00,53.9,47.6,29.68,West,267,0.0,6.0,79,0.00,,,0.00,WUHU216DAVISVP2,2013-09-27 20:06:00,
2013-09-27 15:11:00,54.0,47.7,29.68,West,279,0.0,6.0,79,0.00,,,0.00,WUHU216DAVISVP2,2013-09-27 20:11:00,
2013-09-27 15:16:00,53.9,47.6,29.68,West,279,0.0,6.0,79,0.00,,,0.00,WUHU216DAVISVP2,2013-09-27 20:16:00,
2013-09-27 15:21:00,54.0,47.7,29.68,North,5,3.0,4.0,79,0.00,,,0.00,WUHU216DAVISVP2,2013-09-27 20:21:00,
2013-09-27 15:26:00,53.9,47.6,29.69,NW,308,0.0,4.0,79,0.00,,,0.00,WUHU216DAVISVP2,2013-09-27 20:26:00,
2013-09-27 15:31:00,53.8,47.5,29.69,WNW,302,0.0,3.0,79,0.00,,,0.00,WUHU216DAVISVP2,2013-09-27 20:31:00,
2013-09-27 15:36:00,53.6,47.6,29.69,WNW,300,0.0,4.0,80,0.00,,,0.00,WUHU216DAVISVP2,2013-09-27 20:36:00,
2013-09-27 15:41:00,53.4,47.4,29.69,WNW,300,0.0,4.0,80,0.00,,,0.00,WUHU216DAVISVP2,2013-09-27 20:41:00,
2013-09-27 15:46:00,53.4,47.4,29.69,WNW,300,0.0,0.0,80,0.00,,,0.00,WUHU216DAVISVP2,2013-09-27 20:46:00,
2013-09-27 15:51:00,53.3,47.6,29.70,NW,306,0.0,6.0,81,0.00,,,0.00,WUHU216DAVISVP2,2013-09-27 20:51:00,
2013-09-27 15:56:00,53.3,47.6,29.70,WNW,296,1.0,6.0,81,0.00,,,0.00,WUHU216DAVISVP2,2013-09-27 20:56:00,
2013-09-27 16:01:00,53.2,47.6,29.70,WNW,296,0.0,3.0,81,0.00,,,0.00,WUHU216DAVISVP2,2013-09-27 21:01:00,
2013-09-27 16:06:00,53.1,47.8,29.70,WNW,296,0.0,2.0,82,0.00,,,0.00,WUHU216DAVISVP2,2013-09-27 21:06:00,
2013-09-27 16:11:00,53.1,47.8,29.70,WNW,295,0.0,0.0,82,0.00,,,0.00,WUHU216DAVISVP2,2013-09-27 21:11:00,
2013-09-27 16:16:00,53.2,47.9,29.70,WNW,295,0.0,5.0,82,0.00,,,0.00,WUHU216DAVISVP2,2013-09-27 21:16:00,
2013-09-27 16:21:00,53.2,47.9,29.71,WNW,295,0.0,5.0,82,0.00,,,0.00,WUHU216DAVISVP2,2013-09-27 21:21:00,
2013-09-27 16:26:00,53.1,48.1,29.71,WNW,295,0.0,1.0,83,0.00,,,0.00,WUHU216DAVISVP2,2013-09-27 21:26:00,
2013-09-27 16:31:00,53.0,48.0,29.71,WNW,295,0.0,1.0,83,0.00,,,0.00,WUHU216DAVISVP2,2013-09-27 21:31:00,
2013-09-27 16:36:00,53.0,48.3,29.71,WNW,295,0.0,0.0,84,0.00,,,0.00,WUHU216DAVISVP2,2013-09-27 21:36:00,
2013-09-27 16:41:00,52.8,48.1,29.71,WNW,295,0.0,0.0,84,0.00,,,0.00,WUHU216DAVISVP2,2013-09-27 21:41:00,
2013-09-27 16:46:00,52.8,48.1,29.71,WNW,295,0.0,0.0,84,0.00,,,0.00,WUHU216DAVISVP2,2013-09-27 21:46:00,
2013-09-27 16:51:00,52.7,48.3,29.71,NW,325,0.0,3.0,85,0.00,,,0.00,WUHU216DAVISVP2,2013-09-27 21:51:00,
2013-09-27 16:56:00,52.6,48.2,29.71,NNW,344,0.0,4.0,85,0.00,,,0.00,WUHU216DAVISVP2,2013-09-27 21:56:00,
2013-09-27 17:01:00,52.7,48.3,29.71,North,355,0.0,4.0,85,0.00,,,0.00,WUHU216DAVISVP2,2013-09-27 22:01:00,
2013-09-27 17:06:00,52.7,48.3,29.71,North,355,0.0,0.0,85,0.00,,,0.00,WUHU216DAVISVP2,2013-09-27 22:06:00,
2013-09-27 17:11:00,52.6,48.2,29.71,North,355,0.0,0.0,85,0.00,,,0.00,WUHU216DAVISVP2,2013-09-27 22:11:00,
2013-09-27 17:16:00,52.7,48.6,29.71,North,355,0.0,0.0,86,0.00,,,0.00,WUHU216DAVISVP2,2013-09-27 22:16:00,
2013-09-27 17:21:00,52.8,48.7,29.71,North,355,0.0,0.0,86,0.00,,,0.00,WUHU216DAVISVP2,2013-09-27 22:21:00,
2013-09-27 17:26:00,52.7,48.6,29.72,North,349,0.0,0.0,86,0.00,,,0.00,WUHU216DAVISVP2,2013-09-27 22:26:00,
2013-09-27 17:31:00,52.7,48.6,29.72,North,349,0.0,0.0,86,0.00,,,0.00,WUHU216DAVISVP2,2013-09-27 22:31:00,
2013-09-27 17:36:00,52.6,48.5,29.72,NNW,348,0.0,0.0,86,0.01,,,0.01,WUHU216DAVISVP2,2013-09-27 22:36:00,
2013-09-27 17:41:00,52.6,48.5,29.72,NNW,348,0.0,3.0,86,0.01,,,0.01,WUHU216DAVISVP2,2013-09-27 22:41:00,
2013-09-27 17:46:00,52.8,48.7,29.72,North,349,0.0,3.0,86,0.01,,,0.01,WUHU216DAVISVP2,2013-09-27 22:46:00,
2013-09-27 17:51:00,52.9,48.8,29.72,NW,323,0.0,0.0,86,0.01,,,0.01,WUHU216DAVISVP2,2013-09-27 22:51:00,
2013-09-27 17:56:00,52.9,48.8,29.72,NW,314,0.0,0.0,86,0.01,,,0.01,WUHU216DAVISVP2,2013-09-27 22:56:00,
2013-09-27 18:01:00,52.9,48.8,29.72,NW,314,0.0,0.0,86,0.01,,,0.01,WUHU216DAVISVP2,2013-09-27 23:01:00,
2013-09-27 18:06:00,52.9,48.8,29.72,NW,314,0.0,0.0,86,0.01,,,0.01,WUHU216DAVISVP2,2013-09-27 23:06:00,
2013-09-27 18:11:00,52.9,48.8,29.72,NW,315,0.0,0.0,86,0.01,,,0.01,WUHU216DAVISVP2,2013-09-27 23:11:00,
2013-09-27 18:16:00,53.0,48.9,29.73,NW,314,0.0,0.0,86,0.01,,,0.01,WUHU216DAVISVP2,2013-09-27 23:16:00,
2013-09-27 18:21:00,53.0,48.9,29.72,NW,315,0.0,0.0,86,0.01,,,0.01,WUHU216DAVISVP2,2013-09-27 23:21:00,
2013-09-27 18:26:00,53.0,48.9,29.73,NW,314,0.0,0.0,86,0.01,,,0.01,WUHU216DAVISVP2,2013-09-27 23:26:00,
2013-09-27 18:31:00,53.0,48.9,29.73,NW,314,0.0,0.0,86,0.01,,,0.01,WUHU216DAVISVP2,2013-09-27 23:31:00,
2013-09-27 18:36:00,53.0,48.9,29.73,NW,314,0.0,0.0,86,0.00,,,0.01,WUHU216DAVISVP2,2013-09-27 23:36:00,
2013-09-27 18:41:00,53.0,48.9,29.73,NW,314,0.0,0.0,86,0.00,,,0.01,WUHU216DAVISVP2,2013-09-27 23:41:00,
2013-09-27 18:46:00,53.0,48.9,29.73,WNW,293,0.0,5.0,86,0.00,,,0.01,WUHU216DAVISVP2,2013-09-27 23:46:00,
2013-09-27 18:51:00,53.0,48.9,29.73,WNW,292,0.0,5.0,86,0.00,,,0.01,WUHU216DAVISVP2,2013-09-27 23:51:00,
2013-09-27 18:56:00,53.0,48.9,29.73,WNW,292,0.0,3.0,86,0.00,,,0.01,WUHU216DAVISVP2,2013-09-27 23:56:00,
2013-09-27 19:01:00,53.0,48.9,29.72,WNW,292,0.0,2.0,86,0.00,,,0.01,WUHU216DAVISVP2,2013-09-28 00:01:00,
2013-09-27 19:06:00,53.0,48.9,29.72,WNW,292,0.0,0.0,86,0.00,,,0.01,WUHU216DAVISVP2,2013-09-28 00:06:00,
2013-09-27 19:11:00,53.0,48.9,29.72,WNW,293,0.0,0.0,86,0.00,,,0.01,WUHU216DAVISVP2,2013-09-28 00:11:00,
2013-09-27 19:16:00,53.0,48.9,29.73,WNW,293,0.0,0.0,86,0.00,,,0.01,WUHU216DAVISVP2,2013-09-28 00:16:00,
2013-09-27 19:21:00,52.9,48.8,29.72,WNW,294,0.0,0.0,86,0.00,,,0.01,WUHU216DAVISVP2,2013-09-28 00:21:00,
2013-09-27 19:26:00,52.9,48.8,29.72,WNW,294,0.0,0.0,86,0.00,,,0.01,WUHU216DAVISVP2,2013-09-28 00:26:00,
2013-09-27 19:31:00,52.9,48.8,29.73,WNW,292,0.0,0.0,86,0.00,,,0.01,WUHU216DAVISVP2,2013-09-28 00:31:00,
2013-09-27 19:36:00,52.9,48.8,29.74,WNW,290,0.0,0.0,86,0.00,,,0.01,WUHU216DAVISVP2,2013-09-28 00:36:00,
2013-09-27 19:41:00,52.8,48.7,29.74,WNW,291,0.0,0.0,86,0.00,,,0.01,WUHU216DAVISVP2,2013-09-28 00:41:00,
2013-09-27 19:46:00,52.7,48.6,29.74,WNW,291,0.0,4.0,86,0.00,,,0.01,WUHU216DAVISVP2,2013-09-28 00:46:00,
2013-09-27 19:51:00,52.6,48.5,29.74,WNW,292,0.0,4.0,86,0.00,,,0.01,WUHU216DAVISVP2,2013-09-28 00:51:00,
2013-09-27 19:56:00,52.6,48.5,29.74,WNW,292,0.0,0.0,86,0.00,,,0.01,WUHU216DAVISVP2,2013-09-28 00:56:00,
2013-09-27 20:01:00,52.6,48.5,29.73,WNW,292,0.0,2.0,86,0.00,,,0.01,WUHU216DAVISVP2,2013-09-28 01:01:00,
2013-09-27 20:06:00,52.5,48.4,29.74,WNW,291,0.0,2.0,86,0.00,,,0.01,WUHU216DAVISVP2,2013-09-28 01:06:00,
2013-09-27 20:11:00,52.6,48.5,29.74,WNW,291,0.0,0.0,86,0.00,,,0.01,WUHU216DAVISVP2,2013-09-28 01:11:00,
2013-09-27 20:16:00,52.6,48.5,29.75,WNW,291,0.0,0.0,86,0.00,,,0.01,WUHU216DAVISVP2,2013-09-28 01:16:00,
2013-09-27 20:21:00,52.5,48.4,29.75,WNW,291,0.0,0.0,86,0.00,,,0.01,WUHU216DAVISVP2,2013-09-28 01:21:00,
2013-09-27 20:26:00,52.5,48.4,29.76,WNW,291,0.0,0.0,86,0.00,,,0.01,WUHU216DAVISVP2,2013-09-28 01:26:00,
2013-09-27 20:31:00,52.5,48.4,29.75,WNW,292,0.0,0.0,86,0.00,,,0.01,WUHU216DAVISVP2,2013-09-28 01:31:00,
2013-09-27 20:36:00,52.5,48.4,29.75,WNW,291,0.0,0.0,86,0.00,,,0.01,WUHU216DAVISVP2,2013-09-28 01:36:00,
2013-09-27 20:41:00,52.5,48.4,29.75,WNW,291,0.0,0.0,86,0.00,,,0.01,WUHU216DAVISVP2,2013-09-28 01:41:00,
2013-09-27 20:46:00,52.5,48.4,29.75,WNW,291,0.0,3.0,86,0.00,,,0.01,WUHU216DAVISVP2,2013-09-28 01:46:00,
2013-09-27 20:51:00,52.5,48.4,29.76,WNW,291,0.0,3.0,86,0.00,,,0.01,WUHU216DAVISVP2,2013-09-28 01:51:00,
2013-09-27 20:56:00,52.5,48.4,29.74,WNW,291,0.0,0.0,86,0.00,,,0.01,WUHU216DAVISVP2,2013-09-28 01:56:00,
2013-09-27 21:01:00,52.4,48.3,29.75,WNW,290,0.0,0.0,86,0.00,,,0.01,WUHU216DAVISVP2,2013-09-28 02:01:00,
2013-09-27 21:06:00,52.4,48.3,29.76,WNW,291,0.0,0.0,86,0.00,,,0.01,WUHU216DAVISVP2,2013-09-28 02:06:00,
2013-09-27 21:11:00,52.4,48.6,29.75,WNW,288,0.0,4.0,87,0.00,,,0.01,WUHU216DAVISVP2,2013-09-28 02:11:00,
2013-09-27 21:16:00,52.4,48.6,29.75,WNW,288,0.0,4.0,87,0.00,,,0.01,WUHU216DAVISVP2,2013-09-28 02:16:00,
2013-09-27 21:21:00,52.3,48.2,29.75,WNW,288,0.0,0.0,86,0.00,,,0.01,WUHU216DAVISVP2,2013-09-28 02:21:00,
2013-09-27 21:26:00,52.4,48.6,29.75,WNW,288,0.0,0.0,87,0.00,,,0.01,WUHU216DAVISVP2,2013-09-28 02:26:00,
2013-09-27 21:31:00,52.4,48.6,29.75,WNW,288,0.0,0.0,87,0.00,,,0.01,WUHU216DAVISVP2,2013-09-28 02:31:00,
2013-09-27 21:36:00,52.3,48.5,29.75,WNW,289,0.0,0.0,87,0.00,,,0.01,WUHU216DAVISVP2,2013-09-28 02:36:00,
2013-09-27 21:41:00,52.4,48.6,29.75,WNW,289,0.0,0.0,87,0.00,,,0.01,WUHU216DAVISVP2,2013-09-28 02:41:00,
2013-09-27 21:46:00,52.3,48.5,29.75,WNW,288,0.0,0.0,87,0.00,,,0.01,WUHU216DAVISVP2,2013-09-28 02:46:00,
2013-09-27 21:51:00,52.3,48.5,29.75,WNW,289,0.0,0.0,87,0.00,,,0.01,WUHU216DAVISVP2,2013-09-28 02:51:00,
2013-09-27 21:56:00,52.3,48.5,29.75,WNW,290,0.0,0.0,87,0.00,,,0.01,WUHU216DAVISVP2,2013-09-28 02:56:00,
2013-09-27 22:01:00,52.4,48.6,29.75,WNW,291,0.0,0.0,87,0.00,,,0.01,WUHU216DAVISVP2,2013-09-28 03:01:00,
2013-09-27 22:06:00,52.4,48.6,29.75,WNW,290,0.0,0.0,87,0.00,,,0.01,WUHU216DAVISVP2,2013-09-28 03:06:00,
2013-09-27 22:11:00,52.4,48.6,29.76,WNW,290,0.0,0.0,87,0.00,,,0.01,WUHU216DAVISVP2,2013-09-28 03:11:00,
2013-09-27 22:16:00,52.4,48.6,29.75,WNW,290,0.0,0.0,87,0.00,,,0.01,WUHU216DAVISVP2,2013-09-28 03:16:00,
2013-09-27 22:21:00,52.4,48.6,29.75,WNW,290,0.0,1.0,87,0.00,,,0.01,WUHU216DAVISVP2,2013-09-28 03:21:00,
2013-09-27 22:26:00,52.4,48.6,29.76,WNW,290,0.0,1.0,87,0.00,,,0.01,WUHU216DAVISVP2,2013-09-28 03:26:00,
2013-09-27 22:31:00,52.4,48.6,29.75,WNW,290,0.0,0.0,87,0.00,,,0.01,WUHU216DAVISVP2,2013-09-28 03:31:00,
2013-09-27 22:36:00,52.5,48.7,29.75,WNW,290,0.0,0.0,87,0.00,,,0.01,WUHU216DAVISVP2,2013-09-28 03:36:00,
2013-09-27 22:41:00,52.6,48.8,29.75,WNW,290,0.0,0.0,87,0.00,,,0.01,WUHU216DAVISVP2,2013-09-28 03:41:00,
2013-09-27 22:46:00,52.6,48.8,29.76,WNW,290,0.0,0.0,87,0.00,,,0.01,WUHU216DAVISVP2,2013-09-28 03:46:00,
2013-09-27 22:51:00,52.6,48.8,29.76,WNW,290,0.0,0.0,87,0.00,,,0.01,WUHU216DAVISVP2,2013-09-28 03:51:00,
2013-09-27 22:56:00,52.6,48.8,29.75,WNW,290,4.0,5.0,87,0.00,,,0.01,WUHU216DAVISVP2,2013-09-28 03:56:00,
2013-09-27 23:01:00,52.6,48.8,29.76,WNW,290,0.0,5.0,87,0.00,,,0.01,WUHU216DAVISVP2,2013-09-28 04:01:00,
2013-09-27 23:06:00,52.6,48.8,29.76,WNW,286,0.0,5.0,87,0.00,,,0.01,WUHU216DAVISVP2,2013-09-28 04:06:00,
2013-09-27 23:11:00,52.7,48.9,29.77,WNW,286,0.0,5.0,87,0.00,,,0.01,WUHU216DAVISVP2,2013-09-28 04:11:00,
2013-09-27 23:16:00,52.7,48.9,29.77,WNW,286,0.0,4.0,87,0.00,,,0.01,WUHU216DAVISVP2,2013-09-28 04:16:00,
2013-09-27 23:21:00,52.7,48.9,29.76,WNW,286,0.0,0.0,87,0.00,,,0.01,WUHU216DAVISVP2,2013-09-28 04:21:00,
2013-09-27 23:26:00,52.7,48.9,29.76,WNW,286,0.0,0.0,87,0.00,,,0.01,WUHU216DAVISVP2,2013-09-28 04:26:00,
2013-09-27 23:31:00,52.7,48.9,29.76,WNW,286,0.0,0.0,87,0.00,,,0.01,WUHU216DAVISVP2,2013-09-28 04:31:00,
2013-09-27 23:36:00,52.8,49.0,29.76,WNW,286,0.0,0.0,87,0.00,,,0.01,WUHU216DAVISVP2,2013-09-28 04:36:00,
2013-09-27 23:41:00,52.8,49.0,29.76,WNW,286,0.0,0.0,87,0.01,,,0.02,WUHU216DAVISVP2,2013-09-28 04:41:00,
2013-09-27 23:46:00,52.8,49.0,29.75,WNW,286,0.0,0.0,87,0.01,,,0.02,WUHU216DAVISVP2,2013-09-28 04:46:00,
2013-09-27 23:51:00,52.8,49.0,29.75,WNW,286,0.0,0.0,87,0.01,,,0.02,WUHU216DAVISVP2,2013-09-28 04:51:00,
2013-09-27 23:56:00,52.8,49.0,29.75,WNW,286,0.0,0.0,87,0.02,,,0.03,WUHU216DAVISVP2,2013-09-28 04:56:00,